Temp
-7 -7 -7 -7 -6 -7 -7 -7 -6 -6 -6 -6 -6 -6 -6 -6 -7 -7 -7 -7 -7 -7 -7 -7 -8 -9 -9 -9 -10 -10 -10 -10 -9 -10 -10 -10 -10 -9 -9 -9 -9 -9 -9
-8 -8 -8 -8 -8 -8 -8 -7 -7 -7 -7 -7 -7 -6 -7 -7 -7 -7 -7 -7 -7 -7 -7 -8 -8 -9 -9 -9 -10 -10 -10 -10 -10 -10 -10 -10 -10 -10 -9 -9 -10 -9 -9
-9 -9 -9 -9 -8 -8 -8 -8 -8 -7 -7 -7 -7 -7 -7 -7 -7 -7 -7 -7 -7 -7 -7 -8 -9 -9 -9 -9 -9 -10 -10 -10 -10 -10 -10 -10 -10 -10 -10 -10 -10 -10 -10
-10 -9 -10 -9 -9 -9 -9 -8 -8 -8 -8 -8 -8 -7 -7 -7 -7 -7 -7 -7 -7 -7 -8 -9 -9 -9 -9 -9 -10 -10 -10 -10 -10 -10 -10 -10 -10 -10 -10 -10 -10 -10 -10
-10 -10 -10 -10 -10 -9 -9 -9 -9 -9 -8 -8 -8 -8 -8 -8 -8 -8 -8 -7 -7 -8 -8 -9 -9 -9 -9 -9 -10 -10 -10 -10 -10 -10 -10 -10 -11 -10 -10 -10 -10 -10 -10
-11 -11 -11 -10 -10 -10 -9 -9 -9 -9 -9 -9 -9 -8 -8 -8 -8 -8 -8 -7 -7 -8 -8 -9 -9 -9 -9 -9 -10 -10 -10 -11 -11 -10 -10 -11 -11 -11 -11 -10 -10 -10 -10
-11 -12 -11 -11 -10 -10 -10 -9 -9 -9 -9 -9 -9 -9 -9 -9 -8 -8 -8 -8 -8 -8 -8 -9 -9 -9 -9 -9 -10 -10 -10 -10 -11 -11 -11 -11 -11 -11 -11 -10 -11 -10 -10
-11 -10 -11 -11 -11 -11 -11 -10 -10 -10 -10 -10 -10 -9 -9 -9 -9 -9 -8 -8 -8 -9 -9 -9 -9 -9 -9 -9 -10 -10 -10 -10 -11 -11 -11 -11 -11 -11 -11 -11 -11 -10 -10
-11 -11 -11 -10 -10 -11 -11 -11 -10 -10 -10 -10 -10 -10 -9 -9 -9 -9 -9 -8 -9 -9 -9 -9 -9 -9 -9 -10 -10 -10 -11 -10 -10 -11 -11 -11 -11 -11 -11 -11 -11 -10 -10
-12 -12 -11 -11 -11 -10 -10 -10 -11 -10 -10 -10 -10 -10 -10 -10 -10 -9 -9 -9 -9 -9 -9 -9 -9 -9 -9 -10 -11 -11 -11 -11 -11 -11 -11 -11 -11 -11 -11 -11 -10 -10 -10
-11 -11 -12 -12 -11 -11 -11 -11 -11 -11 -10 -10 -11 -10 -10 -10 -10 -10 -9 -9 -9 -9 -9 -9 -9 -9 -9 -10 -11 -11 -11 -11 -11 -11 -11 -12 -11 -11 -11 -10 -10 -10 -10
-11 -11 -12 -11 -11 -11 -12 -12 -12 -11 -11 -11 -11 -11 -11 -10 -10 -10 -9 -9 -9 -9 -9 -9 -9 -9 -9 -10 -10 -11 -11 -11 -11 -11 -11 -12 -11 -11 -11 -10 -10 -10 -10
-11 -11 -12 -12 -12 -12 -12 -12 -12 -12 -12 -11 -11 -11 -11 -11 -10 -10 -10 -10 -9 -9 -9 -9 -9 -9 -9 -9 -10 -11 -11 -11 -11 -11 -11 -11 -11 -11 -10 -10 -10 -10 -10
-11 -11 -11 -11 -12 -12 -12 -12 -11 -11 -11 -11 -11 -11 -11 -11 -10 -10 -10 -10 -10 -9 -9 -9 -9 -9 -9 -10 -10 -10 -11 -11 -11 -11 -10 -11 -10 -11 -11 -10 -10 -10 -10
-11 -11 -11 -11 -11 -12 -12 -12 -12 -11 -11 -11 -11 -11 -11 -11 -11 -10 -10 -10 -10 -10 -10 -9 -9 -9 -9 -9 -10 -10 -10 -11 -10 -11 -11 -10 -11 -10 -9 -9 -9 -10 -10
-11 -12 -11 -11 -11 -11 -12 -12 -12 -12 -12 -11 -11 -11 -11 -11 -11 -11 -10 -10 -10 -10 -10 -10 -9 -9 -9 -9 -9 -10 -10 -11 -10 -11 -11 -10 -11 -10 -10 -10 -10 -10 -10
-11 -11 -11 -12 -11 -10 -11 -11 -12 -12 -12 -12 -12 -11 -12 -11 -11 -11 -11 -11 -11 -10 -10 -10 -10 -9 -9 -9 -9 -10 -10 -10 -10 -10 -11 -10 -10 -11 -11 -10 -10 -10 -10
-11 -11 -11 -11 -12 -11 -10 -10 -12 -12 -12 -12 -12 -12 -12 -12 -12 -11 -11 -11 -11 -11 -11 -10 -10 -10 -9 -9 -9 -10 -10 -11 -11 -10 -10 -10 -11 -11 -11 -10 -10 -10 -11
-12 -12 -11 -11 -11 -12 -12 -11 -11 -12 -12 -11 -12 -12 -12 -12 -12 -11 -11 -11 -11 -11 -11 -11 -10 -10 -10 -10 -9 -9 -10 -10 -11 -10 -10 -10 -11 -10 -11 -11 -11 -11 -11
-12 -12 -12 -12 -11 -11 -12 -12 -12 -12 -12 -12 -12 -13 -12 -12 -12 -12 -12 -12 -12 -11 -11 -11 -11 -10 -10 -10 -10 -9 -10 -11 -10 -11 -10 -10 -10 -11 -11 -11 -10 -11 -11
-13 -14 -13 -13 -13 -12 -11 -12 -12 -12 -12 -12 -12 -12 -12 -12 -12 -12 -12 -12 -12 -12 -12 -11 -11 -11 -10 -10 -10 -10 -10 -11 -11 -11 -11 -10 -11 -11 -11 -11 -11 -11 -11
-15 -14 -15 -15 -14 -14 -13 -12 -12 -12 -13 -13 -12 -12 -12 -12 -12 -12 -12 -12 -12 -12 -12 -12 -12 -11 -11 -10 -10 -11 -11 -11 -11 -11 -10 -11 -11 -11 -11 -11 -11 -11 -11
-20 -19 -18 -17 -17 -17 -16 -14 -13 -13 -13 -13 -13 -12 -12 -13 -12 -13 -12 -12 -13 -13 -12 -12 -12 -11 -11 -12 -11 -11 -11 -11 -11 -11 -11 -11 -11 -11 -11 -11 -11 -11 -11
-22 -22 -22 -21 -21 -18 -17 -17 -16 -14 -15 -13 -13 -13 -13 -13 -13 -13 -12 -12 -13 -13 -13 -12 -12 -12 -11 -12 -11 -12 -11 -11 -11 -11 -11 -11 -11 -11 -11 -11 -11 -11 -12
-25 -24 -24 -24 -23 -21 -19 -18 -18 -17 -15 -16 -14 -13 -14 -15 -13 -13 -13 -13 -13 -13 -13 -13 -12 -12 -11 -12 -12 -12 -12 -12 -11 -11 -11 -11 -11 -11 -11 -11 -11 -11 -12
-29 -27 -26 -25 -24 -24 -22 -21 -19 -18 -17 -17 -16 -15 -14 -14 -14 -14 -13 -13 -14 -13 -13 -13 -13 -13 -11 -12 -12 -13 -12 -12 -12 -12 -11 -12 -12 -12 -12 -12 -12 -12 -12
Height
5821 5823 5824 5825 5827 5828 5829 5830 5831 5832 5834 5835 5837 5838 5838 5838 5839 5840 5840 5840 5840 5840 5840 5840 5841 5842 5843 5844 5845 5846 5848 5850 5851 5852 5854 5856 5858 5861 5861 5863 5864 5866 5867
5817 5819 5821 5822 5824 5825 5827 5828 5828 5829 5831 5832 5834 5835 5835 5836 5836 5837 5838 5838 5838 5838 5838 5838 5838 5840 5841 5842 5844 5845 5846 5848 5850 5851 5853 5855 5857 5859 5860 5861 5864 5865 5867
5814 5815 5816 5819 5820 5822 5824 5825 5825 5825 5826 5829 5830 5831 5832 5833 5833 5834 5835 5836 5836 5836 5836 5836 5837 5838 5839 5840 5842 5844 5845 5846 5848 5849 5852 5853 5855 5857 5859 5861 5863 5864 5866
5810 5811 5812 5813 5816 5818 5819 5820 5822 5823 5823 5824 5826 5827 5828 5829 5830 5831 5832 5833 5834 5833 5834 5834 5835 5836 5837 5839 5841 5842 5843 5845 5846 5848 5850 5852 5854 5856 5858 5859 5861 5862 5864
5806 5807 5808 5810 5812 5813 5814 5816 5817 5819 5820 5820 5822 5823 5824 5824 5826 5828 5828 5829 5831 5830 5831 5832 5832 5833 5834 5837 5839 5839 5841 5842 5843 5845 5847 5850 5852 5854 5856 5858 5859 5861 5863
5802 5802 5803 5805 5806 5808 5809 5811 5813 5813 5815 5817 5817 5819 5820 5821 5823 5824 5825 5826 5827 5827 5828 5829 5830 5830 5832 5834 5837 5837 5837 5838 5840 5842 5844 5847 5849 5851 5852 5853 5856 5859 5861
5792 5795 5798 5800 5801 5802 5803 5804 5806 5808 5809 5811 5813 5814 5816 5817 5818 5820 5821 5822 5823 5824 5825 5826 5827 5827 5829 5831 5833 5834 5834 5835 5836 5838 5841 5843 5845 5848 5850 5849 5853 5856 5858
5785 5785 5789 5792 5794 5796 5796 5798 5800 5802 5804 5807 5809 5810 5811 5813 5814 5816 5818 5819 5820 5821 5822 5823 5824 5824 5825 5827 5829 5829 5830 5832 5832 5834 5837 5839 5842 5844 5846 5848 5851 5854 5857
5784 5786 5788 5785 5783 5786 5790 5793 5795 5798 5799 5801 5803 5805 5807 5808 5809 5811 5813 5814 5816 5817 5818 5820 5821 5820 5823 5823 5824 5824 5825 5827 5829 5831 5834 5836 5838 5841 5843 5846 5848 5851 5854
5779 5781 5782 5783 5784 5786 5784 5787 5789 5791 5793 5796 5797 5800 5802 5803 5804 5806 5809 5810 5812 5813 5814 5815 5817 5817 5819 5818 5819 5819 5819 5822 5825 5827 5830 5832 5835 5838 5840 5843 5846 5848 5851
5771 5772 5774 5776 5778 5781 5783 5784 5785 5785 5786 5790 5792 5794 5796 5797 5798 5801 5804 5806 5807 5809 5810 5811 5812 5813 5815 5813 5814 5814 5815 5817 5820 5823 5826 5828 5831 5835 5838 5840 5842 5844 5847
5763 5764 5766 5768 5770 5772 5775 5777 5778 5780 5781 5784 5786 5787 5790 5791 5793 5795 5798 5801 5802 5805 5805 5806 5808 5809 5810 5808 5808 5809 5810 5812 5815 5818 5821 5825 5826 5830 5832 5836 5839 5841 5844
5755 5757 5758 5759 5761 5763 5765 5768 5769 5772 5775 5777 5780 5782 5783 5785 5787 5789 5791 5794 5797 5799 5801 5802 5803 5804 5805 5805 5804 5804 5805 5807 5811 5813 5817 5819 5822 5826 5829 5829 5832 5837 5841
5745 5746 5748 5749 5752 5753 5755 5758 5761 5765 5767 5769 5772 5775 5776 5778 5780 5783 5784 5786 5790 5793 5795 5797 5798 5799 5799 5800 5801 5800 5802 5804 5807 5809 5811 5815 5820 5826 5825 5816 5827 5830 5835
5734 5736 5736 5738 5740 5742 5746 5747 5751 5755 5758 5760 5763 5765 5768 5771 5773 5775 5778 5780 5783 5786 5789 5790 5793 5794 5794 5795 5796 5798 5798 5800 5804 5805 5808 5812 5818 5823 5800 5794 5811 5822 5830
5720 5721 5724 5726 5728 5730 5733 5736 5740 5743 5747 5750 5754 5757 5759 5762 5765 5767 5770 5773 5776 5779 5782 5783 5786 5788 5788 5789 5791 5794 5795 5798 5801 5803 5804 5808 5814 5819 5813 5815 5818 5821 5827
5704 5705 5708 5711 5715 5718 5719 5723 5728 5732 5736 5739 5742 5745 5749 5753 5756 5759 5762 5765 5767 5772 5774 5777 5779 5782 5782 5785 5785 5788 5790 5794 5797 5800 5800 5804 5809 5813 5816 5818 5819 5821 5825
5686 5688 5690 5694 5698 5702 5705 5708 5713 5718 5723 5728 5731 5734 5738 5742 5747 5750 5753 5756 5759 5763 5766 5770 5772 5775 5776 5779 5780 5781 5785 5788 5792 5796 5797 5800 5804 5808 5811 5814 5817 5819 5823
5665 5667 5669 5673 5679 5683 5689 5693 5697 5703 5708 5713 5719 5723 5726 5730 5734 5740 5744 5748 5751 5755 5758 5762 5765 5768 5769 5771 5774 5775 5778 5781 5786 5790 5795 5797 5799 5802 5807 5811 5814 5817 5820
5639 5642 5646 5651 5657 5663 5670 5676 5681 5685 5692 5698 5704 5710 5714 5719 5723 5728 5733 5738 5741 5745 5749 5754 5757 5759 5763 5763 5767 5769 5771 5775 5779 5783 5788 5792 5796 5795 5802 5806 5810 5813 5817
5606 5614 5620 5625 5632 5638 5646 5655 5664 5669 5674 5680 5688 5695 5700 5706 5712 5717 5722 5727 5733 5737 5741 5745 5748 5752 5756 5758 5760 5762 5766 5771 5774 5779 5781 5786 5788 5790 5796 5802 5805 5807 5811
5571 5576 5590 5598 5604 5612 5621 5630 5641 5651 5658 5662 5668 5680 5687 5693 5699 5705 5711 5716 5722 5727 5732 5737 5739 5744 5748 5750 5754 5758 5762 5766 5769 5773 5778 5781 5785 5787 5790 5797 5803 5805 5807
5541 5546 5552 5563 5577 5585 5594 5605 5617 5628 5638 5645 5654 5662 5671 5680 5686 5693 5698 5705 5711 5717 5722 5726 5732 5735 5740 5743 5748 5753 5756 5757 5765 5768 5772 5776 5778 5782 5785 5792 5795 5799 5802
5517 5519 5526 5533 5544 5558 5569 5579 5592 5602 5614 5624 5636 5646 5654 5664 5671 5680 5687 5693 5699 5705 5711 5717 5722 5728 5733 5737 5741 5745 5749 5753 5755 5759 5765 5769 5772 5778 5781 5785 5788 5792 5795
5495 5497 5503 5513 5522 5531 5543 5555 5567 5581 5592 5603 5617 5627 5637 5648 5655 5665 5672 5679 5686 5693 5700 5706 5712 5718 5724 5729 5732 5737 5743 5746 5749 5754 5757 5761 5767 5770 5774 5777 5781 5785 5789
5479 5480 5482 5492 5501 5511 5521 5530 5543 5558 5576 5581 5597 5607 5619 5629 5638 5649 5659 5666 5673 5681 5687 5695 5702 5708 5713 5720 5725 5729 5735 5739 5742 5746 5750 5753 5757 5761 5765 5769 5773 5776 5780
Wind_Speed
22 24 24 24 22 21 19 18 19 17 16 16 16 14 14 13 12 12 12 12 12 14 15 15 15 13 12 10 9 8 10 15 18 17 16 16 15 17 15 15 15 15 14
22 24 24 24 21 21 20 20 20 19 19 18 17 16 15 14 12 13 13 14 14 16 17 17 15 13 12 12 11 10 10 12 17 19 18 17 16 17 17 17 16 16 15
22 23 23 23 21 21 21 22 23 22 21 20 20 17 16 15 14 13 14 15 16 16 18 17 15 14 13 13 13 12 11 12 14 18 18 18 18 18 19 19 18 18 17
24 25 24 23 22 22 23 23 24 24 23 22 21 20 18 17 16 15 15 16 17 16 17 16 14 15 14 15 16 15 13 13 14 18 19 18 16 18 20 20 20 19 17
25 26 24 24 22 24 24 24 25 26 26 24 23 22 20 18 17 16 16 16 16 14 15 14 13 14 14 16 18 16 15 16 15 17 20 19 18 19 21 23 22 20 19
24 26 24 24 24 25 25 25 27 27 27 27 25 24 22 20 19 18 17 17 15 12 12 11 12 13 16 18 19 16 17 18 19 19 20 21 19 21 23 22 21 19 19
24 26 25 24 26 27 28 29 29 29 29 28 28 25 23 22 21 20 18 18 15 13 12 12 13 13 17 21 22 19 20 20 21 21 20 20 22 20 20 19 15 19 20
27 30 28 28 28 29 28 29 30 30 29 30 30 26 24 24 22 22 20 19 17 15 14 15 16 16 18 21 22 20 23 23 23 23 22 21 23 21 20 19 17 19 19
34 31 31 33 33 31 31 29 30 30 30 30 30 29 27 26 25 24 23 20 19 18 18 18 20 19 21 22 23 21 24 26 26 25 23 24 24 23 22 21 20 19 19
33 38 40 35 35 35 34 32 33 32 31 32 31 30 29 28 27 25 25 22 21 21 21 21 22 20 21 22 24 24 25 27 26 27 27 24 26 24 24 22 21 21 21
36 33 34 42 49 47 40 35 35 34 33 34 34 32 31 30 30 27 26 25 23 23 22 24 23 22 21 21 23 24 26 28 26 27 27 29 27 27 24 24 24 24 26
39 39 40 39 39 35 32 41 43 36 36 35 35 34 34 33 31 28 27 27 27 24 23 22 24 23 22 21 23 22 23 29 30 27 29 26 29 29 27 26 27 27 27
44 43 42 43 42 42 40 35 36 41 41 38 40 39 37 35 33 30 29 29 29 27 25 23 23 25 22 22 22 21 22 28 27 28 30 25 29 29 30 33 32 30 29
45 46 47 45 45 45 45 40 37 37 37 37 38 41 39 37 35 34 32 30 31 30 28 26 25 25 22 21 22 21 20 24 24 26 24 28 27 28 31 47 42 31 29
52 50 49 49 49 48 47 45 42 42 42 41 39 38 37 37 36 35 35 33 33 32 31 28 28 26 23 24 23 23 22 20 24 26 25 28 28 26 16 34 29 31 30
59 59 57 53 51 53 51 50 47 44 42 43 43 43 42 39 37 36 37 35 35 34 34 31 30 28 26 26 25 26 22 25 27 27 27 29 30 32 32 20 29 26 35
67 66 65 62 59 55 55 54 53 50 47 45 45 44 44 44 41 40 38 38 36 36 35 33 32 30 28 27 28 27 27 22 31 30 31 32 31 35 31 31 30 18 26
74 74 73 71 68 64 60 58 56 55 53 51 48 45 45 43 44 44 42 41 39 38 36 35 34 31 30 27 30 31 28 26 34 38 30 30 34 31 30 23 27 21 17
84 82 81 80 77 74 70 65 62 59 56 54 53 49 47 46 43 42 43 42 41 39 37 35 35 33 31 27 29 33 31 29 30 37 32 28 38 35 32 28 28 18 20
89 91 89 88 86 82 79 74 69 66 61 58 56 53 51 49 45 43 43 45 42 40 37 36 36 34 34 27 27 34 35 30 23 35 33 31 40 37 24 31 25 29 23
99 93 97 96 94 91 87 83 78 71 67 62 60 57 55 52 49 45 44 44 43 39 38 36 38 35 34 28 25 26 26 29 29 40 37 31 43 43 29 25 22 33 25
105 108 98 98 99 97 95 92 87 80 73 69 64 59 57 55 51 49 46 45 43 40 39 37 38 36 35 31 26 30 32 29 41 39 43 39 44 47 39 34 31 36 31
90 92 94 93 96 98 97 96 93 88 81 75 69 63 61 57 56 53 49 47 45 41 41 39 39 38 36 32 32 32 36 39 44 46 56 56 50 44 42 40 36 40 38
79 80 76 78 77 90 96 93 93 93 85 82 75 69 64 61 60 56 53 50 48 43 41 41 40 41 40 35 39 34 26 37 44 53 46 53 48 51 45 45 49 45 42
65 72 70 71 70 72 79 84 89 89 89 84 81 77 66 58 61 60 57 53 51 47 43 43 43 43 42 35 42 39 32 34 48 47 51 45 51 47 53 53 43 43 41
40 54 70 71 72 70 75 77 78 86 79 79 80 82 77 73 73 64 60 57 55 51 47 44 44 42 45 43 44 44 36 34 38 41 50 50 50 40 39 41 45 41 33
Wind_Direction
250 253 254 251 250 251 249 248 251 253 254 255 259 266 272 280 279 272 273 280 290 294 294 292 286 287 293 295 292 268 242 233 231 231 225 226 221 223 222 216 209 203 197
247 247 252 251 251 250 249 247 249 249 250 251 253 257 267 272 271 269 271 278 285 289 290 285 279 277 281 288 282 278 257 243 231 234 236 229 228 222 223 222 214 208 206
245 246 250 251 247 248 249 246 245 244 245 247 250 252 257 264 267 267 265 271 277 283 284 277 272 274 276 278 281 275 267 256 240 238 236 236 233 226 225 224 220 218 211
248 242 244 244 241 242 242 243 245 246 244 245 249 251 254 257 260 262 264 267 272 278 279 272 265 266 271 269 270 268 263 257 252 241 238 240 235 232 232 224 220 223 220
249 245 240 243 241 239 241 242 244 245 244 244 247 250 252 256 257 257 261 265 272 277 275 265 260 260 267 269 268 262 257 253 248 247 241 239 241 240 233 233 220 219 224
251 251 240 240 239 240 242 242 243 243 245 244 243 248 251 254 255 255 258 260 267 274 266 249 247 254 262 266 268 259 252 246 244 242 241 237 234 240 244 227 212 220 227
238 247 248 239 240 239 239 240 241 244 245 246 247 245 248 251 250 251 255 257 257 260 247 243 248 257 265 266 266 260 251 245 236 238 240 236 233 236 242 244 221 228 227
235 237 241 243 242 243 242 244 245 244 245 247 250 249 247 250 251 249 252 257 253 254 243 242 249 253 265 266 265 262 250 243 238 234 236 231 232 232 236 244 233 234 233
244 251 253 244 233 237 241 244 247 248 246 247 247 248 249 249 252 250 249 253 255 249 247 249 251 257 265 268 259 262 252 241 237 236 236 235 230 229 229 233 237 236 233
256 251 249 253 252 248 239 243 244 246 246 248 248 247 248 249 251 251 250 249 253 250 249 248 253 260 265 266 256 263 252 239 236 234 233 237 225 226 229 231 232 233 233
259 254 254 251 252 256 255 252 246 245 246 249 251 251 249 248 250 252 250 248 250 252 251 251 254 261 262 261 254 259 254 239 233 235 232 227 235 225 227 229 229 229 228
257 256 258 258 260 259 258 260 252 253 251 250 255 255 253 251 250 249 249 249 248 250 252 252 253 258 262 262 261 254 256 238 235 233 232 231 219 222 225 228 229 229 231
265 261 255 256 258 259 260 259 256 254 256 253 254 258 256 254 252 251 250 250 249 249 250 252 255 257 258 265 261 259 251 234 230 225 228 231 220 219 223 225 223 229 229
259 262 262 256 254 254 255 254 253 252 253 255 255 256 257 254 252 251 250 250 250 248 247 250 253 256 256 264 259 255 253 233 230 224 221 228 212 222 235 235 227 211 226
260 257 256 258 256 252 252 252 250 250 251 253 253 253 255 254 252 251 251 251 251 247 246 247 251 256 256 256 257 251 244 225 217 217 219 216 213 216 176 170 201 206 227
256 256 254 253 254 254 252 251 250 249 248 248 249 253 254 253 251 249 251 252 251 249 246 245 249 252 256 254 258 250 246 226 223 213 218 215 216 213 222 199 209 201 211
253 252 252 251 249 249 251 249 249 248 245 245 246 244 249 251 252 249 250 249 249 250 247 245 246 249 253 256 259 253 242 237 209 210 214 217 217 223 220 221 215 213 205
250 251 252 251 249 246 244 247 246 246 247 245 244 244 245 245 247 252 250 248 248 247 247 245 246 245 251 255 256 255 245 236 217 218 225 219 219 221 221 203 185 214 223
250 248 247 248 248 247 245 242 241 241 243 244 243 242 242 244 242 245 248 249 248 247 246 245 246 244 247 250 256 255 250 231 228 224 228 221 219 202 218 207 220 229 224
248 246 246 244 244 245 245 244 239 238 238 239 241 241 240 240 240 241 242 245 244 243 242 242 244 241 245 245 251 254 250 227 224 205 203 215 203 189 193 203 225 246 228
255 249 243 244 242 240 240 242 242 236 235 233 236 236 238 237 238 236 240 242 244 240 239 238 242 239 241 242 246 241 222 216 210 197 202 221 198 197 221 232 229 201 230
261 259 251 243 242 241 239 235 237 239 233 232 230 234 237 236 234 234 234 240 241 240 238 236 239 237 237 235 235 225 230 217 207 210 211 225 206 216 237 235 227 229 243
261 259 257 255 246 242 240 237 232 233 232 231 230 227 232 234 232 231 229 234 239 239 237 236 237 236 233 223 215 223 237 214 225 211 214 216 220 230 240 234 238 239 248
260 259 256 253 249 242 241 241 237 231 231 230 229 227 227 231 233 230 229 228 234 236 235 234 234 232 232 223 218 224 220 222 215 209 222 221 222 228 232 235 238 243 253
260 256 250 243 239 231 236 238 240 236 230 228 226 228 223 224 226 226 227 226 228 231 231 230 230 229 226 216 224 227 218 233 224 224 220 219 226 228 227 236 241 241 242
277 257 248 238 237 241 232 232 232 236 230 231 225 225 225 221 224 229 227 226 226 226 228 227 223 232 225 220 217 223 221 229 233 225 222 232 231 232 235 240 241 244 249